When you browse on this site, cookies collect data to enhance your experience and personalize the content and advertising you see.
Visit our Privacy Policy to learn more. By continuing to use the site, you agree to this use of cookies and data.
  • In Latvia
  • List of Countries
  • For 7 days
  • Water Temperature
  • Weather Map
  • Weather Widgets
  • user-avatar
    Login

    Hourly Weather Linz

    Today, 6 June, Saturday

    Time Temperature Precipitation Wind Pressure Humidity
    00:00 +14°C° 0 mm 2 mps 725 mmHg 87%
    01:00 +13°C° 0 mm 1 mps 726 mmHg 87%
    02:00 +13°C° 0 mm 1 mps 726 mmHg 88%
    03:00 +13°C° 0 mm 1 mps 726 mmHg 88%
    04:00 +12°C° 0 mm 1 mps 726 mmHg 89%
    05:00 +14°C° 0 mm 1 mps 726 mmHg 87%
    06:00 +15°C° 0 mm 2 mps 726 mmHg 86%
    07:00 +16°C° 0 mm 2 mps 726 mmHg 84%
    08:00 +17°C° 0 mm 2 mps 727 mmHg 77%
    09:00 +19°C° 0 mm 3 mps 727 mmHg 69%
    10:00 +21°C° 0 mm 3 mps 727 mmHg 62%
    11:00 +22°C° 0 mm 3 mps 727 mmHg 60%
    12:00 +24°C° 0 mm 3 mps 726 mmHg 59%
    13:00 +25°C° 0 mm 3 mps 726 mmHg 57%
    14:00 +24°C° 0.3 mm 3 mps 726 mmHg 61%
    15:00 +24°C° 0.3 mm 3 mps 726 mmHg 65%
    16:00 +24°C° 0.3 mm 3 mps 726 mmHg 69%
    17:00 +21°C° 0.5 mm 3 mps 726 mmHg 76%
    18:00 +19°C° 0.5 mm 3 mps 726 mmHg 83%
    19:00 +17°C° 0.5 mm 3 mps 726 mmHg 90%
    20:00 +17°C° 0.3 mm 3 mps 726 mmHg 92%
    21:00 +16°C° 0.3 mm 2 mps 727 mmHg 93%
    22:00 +15°C° 0.3 mm 2 mps 727 mmHg 95%
    23:00 +15°C° 0.9 mm 1 mps 727 mmHg 96%

    Tomorrow, 7 June, Sunday

    Time Temperature Precipitation Wind Pressure Humidity
    00:00 +15°C° 0.9 mm 1 mps 727 mmHg 96%
    01:00 +14°C° 0.9 mm 0 mps 727 mmHg 97%
    02:00 +14°C° 0.1 mm 0 mps 727 mmHg 97%
    03:00 +15°C° 0.1 mm 1 mps 727 mmHg 97%
    04:00 +15°C° 0.1 mm 1 mps 727 mmHg 97%
    05:00 +15°C° 0 mm 1 mps 727 mmHg 95%
    06:00 +16°C° 0 mm 1 mps 727 mmHg 94%
    07:00 +16°C° 0 mm 1 mps 727 mmHg 92%
    08:00 +18°C° 0 mm 2 mps 727 mmHg 84%
    09:00 +19°C° 0 mm 2 mps 727 mmHg 77%
    10:00 +21°C° 0 mm 3 mps 727 mmHg 69%
    11:00 +21°C° 0.5 mm 2 mps 727 mmHg 72%
    12:00 +21°C° 0.5 mm 2 mps 727 mmHg 75%
    13:00 +21°C° 0.5 mm 2 mps 726 mmHg 78%
    14:00 +20°C° 1.8 mm 3 mps 726 mmHg 83%
    15:00 +18°C° 1.8 mm 4 mps 726 mmHg 88%
    16:00 +15°C° 1.8 mm 5 mps 726 mmHg 93%
    17:00 +14°C° 3.7 mm 5 mps 726 mmHg 94%
    18:00 +13°C° 3.7 mm 6 mps 727 mmHg 95%
    19:00 +10°C° 3.7 mm 6 mps 727 mmHg 95%
    20:00 +10°C° 1.8 mm 5 mps 728 mmHg 96%
    21:00 +10°C° 1.8 mm 5 mps 728 mmHg 96%
    22:00 +11°C° 1.8 mm 4 mps 729 mmHg 96%
    23:00 +10°C° 0.1 mm 3 mps 729 mmHg 96%

    Day after tomorrow, 8 June, Monday

    Time Temperature Precipitation Wind Pressure Humidity
    00:00 +10°C° 0.1 mm 3 mps 729 mmHg 96%
    01:00 +10°C° 0.1 mm 2 mps 729 mmHg 95%
    02:00 +10°C° 0 mm 2 mps 729 mmHg 95%
    03:00 +11°C° 0 mm 1 mps 729 mmHg 95%
    04:00 +11°C° 0 mm 1 mps 729 mmHg 94%
    05:00 +11°C° 0 mm 1 mps 729 mmHg 92%
    06:00 +12°C° 0 mm 1 mps 730 mmHg 91%
    07:00 +12°C° 0 mm 2 mps 730 mmHg 89%
    08:00 +14°C° 0 mm 2 mps 730 mmHg 82%
    09:00 +15°C° 0 mm 2 mps 731 mmHg 76%
    10:00 +16°C° 0 mm 2 mps 731 mmHg 70%
    11:00 +18°C° 0 mm 1 mps 731 mmHg 68%
    12:00 +19°C° 0 mm 1 mps 731 mmHg 66%
    13:00 +20°C° 0 mm 1 mps 731 mmHg 64%
    14:00 +20°C° 0 mm 1 mps 730 mmHg 64%
    15:00 +20°C° 0 mm 1 mps 730 mmHg 64%
    16:00 +20°C° 0 mm 1 mps 730 mmHg 64%
    17:00 +20°C° 0 mm 1 mps 730 mmHg 69%
    18:00 +19°C° 0 mm 1 mps 730 mmHg 75%
    19:00 +18°C° 0 mm 1 mps 730 mmHg 80%
    20:00 +16°C° 0 mm 1 mps 730 mmHg 83%
    21:00 +15°C° 0 mm 2 mps 730 mmHg 85%
    22:00 +14°C° 0 mm 2 mps 731 mmHg 88%
    23:00 +13°C° 0 mm 2 mps 731 mmHg 90%

    9 June, Tuesday

    Time Temperature Precipitation Wind Pressure Humidity
    00:00 +13°C° 0 mm 2 mps 731 mmHg 92%
    01:00 +12°C° 0 mm 2 mps 730 mmHg 94%
    02:00 +12°C° 0 mm 2 mps 730 mmHg 95%
    03:00 +11°C° 0 mm 1 mps 730 mmHg 95%
    04:00 +11°C° 0 mm 1 mps 730 mmHg 96%
    05:00 +12°C° 0 mm 2 mps 731 mmHg 91%
    06:00 +13°C° 0 mm 2 mps 731 mmHg 87%
    07:00 +15°C° 0 mm 2 mps 731 mmHg 83%
    08:00 +16°C° 0 mm 3 mps 731 mmHg 78%
    09:00 +17°C° 0 mm 3 mps 731 mmHg 74%
    10:00 +18°C° 0 mm 3 mps 731 mmHg 70%
    11:00 +19°C° 0 mm 3 mps 731 mmHg 68%
    12:00 +20°C° 0 mm 3 mps 731 mmHg 66%
    13:00 +21°C° 0 mm 3 mps 731 mmHg 65%
    14:00 +21°C° 0.2 mm 3 mps 731 mmHg 68%
    15:00 +21°C° 0.2 mm 3 mps 730 mmHg 71%
    16:00 +20°C° 0.2 mm 3 mps 730 mmHg 75%
    17:00 +19°C° 0.3 mm 2 mps 730 mmHg 79%
    18:00 +18°C° 0.3 mm 2 mps 730 mmHg 83%
    19:00 +17°C° 0.3 mm 2 mps 730 mmHg 87%
    20:00 +17°C° 0.1 mm 2 mps 730 mmHg 88%
    21:00 +16°C° 0.1 mm 2 mps 731 mmHg 90%
    22:00 +15°C° 0.1 mm 2 mps 731 mmHg 92%
    23:00 +15°C° 0.1 mm 2 mps 731 mmHg 93%

    10 June, Wednesday

    Time Temperature Precipitation Wind Pressure Humidity
    00:00 +15°C° 0.1 mm 2 mps 731 mmHg 93%
    01:00 +14°C° 0.1 mm 2 mps 731 mmHg 94%
    02:00 +14°C° 0 mm 2 mps 730 mmHg 95%
    03:00 +14°C° 0 mm 2 mps 730 mmHg 95%
    04:00 +13°C° 0 mm 2 mps 730 mmHg 95%
    05:00 +14°C° 0 mm 2 mps 730 mmHg 93%
    06:00 +15°C° 0 mm 2 mps 730 mmHg 91%
    07:00 +16°C° 0 mm 2 mps 730 mmHg 89%
    08:00 +16°C° 0.1 mm 2 mps 731 mmHg 87%
    09:00 +17°C° 0.1 mm 2 mps 731 mmHg 84%
    10:00 +18°C° 0.1 mm 2 mps 731 mmHg 82%
    11:00 +18°C° 0.3 mm 2 mps 731 mmHg 84%
    12:00 +18°C° 0.3 mm 2 mps 731 mmHg 86%
    13:00 +17°C° 0.3 mm 2 mps 731 mmHg 87%
    14:00 +18°C° 0.4 mm 1 mps 731 mmHg 89%
    15:00 +18°C° 0.4 mm 1 mps 731 mmHg 90%
    16:00 +18°C° 0.4 mm 1 mps 730 mmHg 91%
    17:00 +18°C° 0.6 mm 1 mps 731 mmHg 93%
    18:00 +16°C° 0.6 mm 1 mps 731 mmHg 94%
    19:00 +16°C° 0.6 mm 1 mps 731 mmHg 96%
    20:00 +16°C° 0.7 mm 1 mps 731 mmHg 96%
    21:00 +16°C° 0.7 mm 1 mps 732 mmHg 96%
    22:00 +16°C° 0.7 mm 1 mps 732 mmHg 96%
    23:00 +15°C° 0.8 mm 1 mps 732 mmHg 96%

    11 June, Thursday

    Time Temperature Precipitation Wind Pressure Humidity
    00:00 +15°C° 0.8 mm 1 mps 732 mmHg 96%
    01:00 +15°C° 0.8 mm 1 mps 732 mmHg 96%
    02:00 +14°C° 0.7 mm 1 mps 732 mmHg 96%
    03:00 +14°C° 0.7 mm 1 mps 732 mmHg 97%
    04:00 +14°C° 0.7 mm 1 mps 732 mmHg 97%
    05:00 +14°C° 0.4 mm 1 mps 732 mmHg 96%
    06:00 +14°C° 0.4 mm 1 mps 732 mmHg 95%
    07:00 +15°C° 0.4 mm 1 mps 732 mmHg 94%
    08:00 +15°C° 0.6 mm 1 mps 732 mmHg 94%
    09:00 +15°C° 0.6 mm 1 mps 732 mmHg 94%
    10:00 +15°C° 0.6 mm 1 mps 732 mmHg 94%
    11:00 +14°C° 1.5 mm 1 mps 732 mmHg 95%
    12:00 +13°C° 1.5 mm 2 mps 732 mmHg 95%
    13:00 +13°C° 1.5 mm 2 mps 732 mmHg 96%
    14:00 +13°C° 0.5 mm 1 mps 732 mmHg 96%
    15:00 +13°C° 0.5 mm 1 mps 732 mmHg 96%
    16:00 +12°C° 0.5 mm 1 mps 732 mmHg 95%
    17:00 +12°C° 0.1 mm 1 mps 732 mmHg 96%
    18:00 +12°C° 0.1 mm 1 mps 732 mmHg 96%
    19:00 +12°C° 0.1 mm 1 mps 732 mmHg 96%
    20:00 +12°C° 0.1 mm 1 mps 732 mmHg 96%
    21:00 +11°C° 0.1 mm 0 mps 732 mmHg 96%
    22:00 +11°C° 0.1 mm 0 mps 733 mmHg 96%
    23:00 +11°C° 0.1 mm 0 mps 732 mmHg 96%
    Show more